Regional Weather Roundup
Issued by NWS Cleveland, OH

Home | Current Version | Previous Version | Graphics & Text | Print | Product List | Glossary On
Versions: 1 2 3 4 5 6 7 8 9 10 11 12 13 14 15 16 17 18 19 20 21 22 23 24 25 26 27 28 29 30 31 32 33 34 35 36 37 38 39 40 41 42 43 44 45 46 47 48 49 50
084
ASUS41 KCLE 101112
RWRCLE
OHIO REGIONAL WEATHER ROUNDUP
NATIONAL WEATHER SERVICE WILMINGTON, OH
600 AM EST WED FEB 10 2016

NOTE: "FAIR" INDICATES FEW OR NO CLOUDS BELOW 12,000 FEET WITH NO
SIGNIFICANT WEATHER AND/OR OBSTRUCTIONS TO VISIBILITY.

OHZ001>008-015>018-024>027-034-035-043-044-101200-
   NORTHWEST OHIO

CITY           SKY/WX    TMP DP  RH WIND       PRES   REMARKS
DEFIANCE       CLOUDY    21  15  78 W8        29.83R WCI  11
FINDLAY        FLURRIES  19  13  77 W18G26    29.81R WCI   4
TOLEDO EXPRESS CLOUDY    21  16  81 W15       29.78R WCI   8
TOLEDO EXEC    CLOUDY    22  16  78 W15       29.79R WCI   9
LIMA           LGT SNOW  16  13  88 W15       29.83R FOG     WCI   1
$$

OHZ009>014-019>023-028>033-038-089-101200-
   NORTHEAST OHIO

CITY           SKY/WX    TMP DP  RH WIND       PRES   REMARKS
CLE-HOPKINS    FLURRIES  22  15  75 SW16      29.78R WCI   8
CLE-LAKEFRONT  CLOUDY    24  18  77 SW20G28   29.75R WCI  10
CUY CO. ARPT   NOT AVBL
LORAIN-ELYRIA  CLOUDY    21  15  78 W14       29.78R WCI   8
ASHTABULA      FLURRIES  25  20  81 W14       29.69R WCI  13
AKRON-CANTON   LGT SNOW  20  15  81 W9G21     29.75R WCI   9
WOOSTER        CLOUDY    19  14  81 W18       29.77R WCI   4
MANSFIELD      FLURRIES  17  13  84 SW14G22   29.77R WCI   3
YOUNGSTOWN     FLURRIES  22  17  81 W18       29.71R WCI   7
$$

OHZ042-051>053-060>062-070>072-077>081-101200-
  SOUTHWEST OHIO

CITY           SKY/WX    TMP DP  RH WIND       PRES   REMARKS
CINC-COVINGTON LGT SNOW  15  10  80 W9        29.95R WCI   3
CINC-LUNKEN    CLOUDY    17   9  70 W16       29.99R WCI   2
HAMILTON       CLOUDY    17  12  80 W9        29.96R WCI   6
DAYTON         LGT SNOW  15  11  83 W16       29.88S FOG     WCI  -1
WRIGHT-PAT AFB FLURRIES  15  11  83 SW13      29.89R WCI   1
DAYTON GENERAL LGT SNOW  15   9  76 SW8       29.90R WCI   4
WILMINGTON     LGT SNOW  13   9  84 W13       29.89R FOG     WCI  -2
$$

OHZ036-037-039>041-045>050-054>059-063>069-073>076-082>088-101200-
  CENTRAL AND SOUTHEAST OHIO

CITY           SKY/WX    TMP DP  RH WIND       PRES   REMARKS
COLUMBUS       LGT SNOW  15   8  73 W12       29.87R WCI   2
OSU AIRPORT    LGT SNOW  16  11  80 W10       29.85R WCI   4
BOLTON FIELD   FLURRIES  15  10  82 W12       29.87R WCI   1
RICKENBACK AFB CLOUDY    15   9  80 W13       29.88S WCI   0
NEWARK         LGT SNOW  16  10  77 MISG      29.85R
MARION         LGT SNOW  18  11  74 W12       29.82R WCI   5
LANCASTER      LGT SNOW  15   9  76 W10       29.88R WCI   2
ZANESVILLE     FLURRIES  18  10  71 W12       29.85R WCI   5
NEW PHILLY     LGT SNOW  20  14  77 W10       29.81R WCI   9
$$




USA.gov is the U.S. government's official web portal to all federal, state and local government web resources and services.